This is the latest recevied weather packets stored in our database for station/object K2RMB. If no packets are shown the sender has not sent any weather packets the latest 10 day(s).
| Time | Temp. | Humidity | Pressure | Rain* | Wind** | Luminosity | Snow |
|---|---|---|---|---|---|---|---|
| 1777308130 | 20.56° C | 31% | 1024.7 hPa | 0 mm | - | 873 W/m² | - |
| 1777307826 | 21.11° C | 31% | 1025.2 hPa | 0 mm | - | 868 W/m² | - |
| 1777307524 | 20.56° C | 31% | 1024.7 hPa | 0 mm | - | 860 W/m² | - |
| 1777307220 | 20° C | 28% | 1025.2 hPa | 0 mm | - | 855 W/m² | - |
| 1777306918 | 18.89° C | 36% | 1024.7 hPa | 0 mm | - | 851 W/m² | - |
| 1777306615 | 20° C | 30% | 1024.7 hPa | 0 mm | - | 848 W/m² | - |
| 1777306310 | 20° C | 31% | 1025.2 hPa | 0 mm | - | 846 W/m² | - |
| 1777306005 | 19.44° C | 31% | 1025.2 hPa | 0 mm | - | 844 W/m² | - |
| 1777305704 | 20° C | 33% | 1025.2 hPa | 0 mm | - | 836 W/m² | - |
| 1777305399 | 19.44° C | 33% | 1025.2 hPa | 0 mm | - | 827 W/m² | - |
| 1777305094 | 19.44° C | 32% | 1025.2 hPa | 0 mm | - | 819 W/m² | - |
| 1777304794 | 19.44° C | 33% | 1025.2 hPa | 0 mm | - | 813 W/m² | - |
| 1777304492 | 18.89° C | 37% | 1025.2 hPa | 0 mm | - | 804 W/m² | - |
| 1777304190 | 18.89° C | 32% | 1025.2 hPa | 0 mm | - | 795 W/m² | - |
| 1777303886 | 18.89° C | 36% | 1025.2 hPa | 0 mm | - | 788 W/m² | - |
| 1777303583 | 18.33° C | 36% | 1025.2 hPa | 0 mm | - | 779 W/m² | - |
| 1777303280 | 19.44° C | 35% | 1025.5 hPa | 0 mm | - | 776 W/m² | - |
| 1777302978 | 18.89° C | 36% | 1025.2 hPa | 0 mm | - | 770 W/m² | - |
| 1777302674 | 18.89° C | 39% | 1025.5 hPa | 0 mm | - | 767 W/m² | - |
| 1777302373 | 18.89° C | 36% | 1025.5 hPa | 0 mm | - | 760 W/m² | - |
| 1777302071 | 18.33° C | 38% | 1025.8 hPa | 0 mm | - | 753 W/m² | - |
| 1777301769 | 18.33° C | 38% | 1025.5 hPa | 0 mm | - | 750 W/m² | - |
| 1777301466 | 17.78° C | 38% | 1025.5 hPa | 0 mm | - | 736 W/m² | - |
| 1777301162 | 17.78° C | 37% | 1025.5 hPa | 0 mm | - | 728 W/m² | - |
| 1777300859 | 18.33° C | 38% | 1025.5 hPa | 0 mm | - | 718 W/m² | - |
* Rain latest hour (hover to see other rain measurements)
** Current wind speed in m/s (hover to see current wind gust speed)